This is the latest recevied weather packets stored in our database for station/object KE5AKC. If no packets are shown the sender has not sent any weather packets the latest 10 day(s).
| Time | Temp. | Humidity | Pressure | Rain* | Wind** | Luminosity | Snow |
|---|---|---|---|---|---|---|---|
| 1777638164 | 17.22° C | 97% | 1011.7 hPa | 0 mm | - | 3 W/m² | - |
| 1777637864 | 17.22° C | 97% | 1011.3 hPa | 0 mm | - | 7 W/m² | - |
| 1777637561 | 17.22° C | 97% | 1010.7 hPa | 0 mm | - | 6 W/m² | - |
| 1777637259 | 17.22° C | 97% | 1010.7 hPa | 0 mm | - | 2 W/m² | - |
| 1777636956 | 17.22° C | 97% | 1011.3 hPa | 0 mm | - | 1 W/m² | - |
| 1777636651 | 17.22° C | 97% | 1011.3 hPa | 2.54 mm | - | 1 W/m² | - |
| 1777636348 | 17.22° C | 97% | 1011 hPa | 2.54 mm | - | 1 W/m² | - |
| 1777636047 | 17.22° C | 97% | 1010.7 hPa | 2.54 mm | - | 0 W/m² | - |
| 1777635744 | 17.22° C | 97% | 1010.7 hPa | 2.54 mm | - | 0 W/m² | - |
| 1777635441 | 17.22° C | 97% | 1010.3 hPa | 2.54 mm | - | 0 W/m² | - |
| 1777635138 | 17.22° C | 97% | 1010.3 hPa | 2.54 mm | - | 0 W/m² | - |
| 1777634834 | 17.22° C | 97% | 1010.7 hPa | 2.54 mm | - | 0 W/m² | - |
| 1777634531 | 17.22° C | 97% | 1011 hPa | 2.54 mm | - | 0 W/m² | - |
| 1777634227 | 17.22° C | 97% | 1010.7 hPa | 2.29 mm | - | 0 W/m² | - |
| 1777633924 | 17.22° C | 97% | 1010.3 hPa | 0.76 mm | - | 0 W/m² | - |
| 1777633622 | 17.22° C | 97% | 1010.3 hPa | 0.25 mm | - | 0 W/m² | - |
| 1777633320 | 17.22° C | 97% | 1010.3 hPa | 0 mm | - | 0 W/m² | - |
| 1777633017 | 17.22° C | 97% | 1010.3 hPa | 9.4 mm | - | 0 W/m² | - |
| 1777632713 | 17.22° C | 97% | 1010.7 hPa | 9.14 mm | - | 0 W/m² | - |
| 1777632409 | 17.22° C | 97% | 1011.3 hPa | 8.13 mm | - | 0 W/m² | - |
| 1777632107 | 17.22° C | 97% | 1010.7 hPa | 6.35 mm | - | 0 W/m² | - |
| 1777631804 | 17.78° C | 97% | 1011 hPa | 6.1 mm | - | 0 W/m² | - |
| 1777631502 | 17.78° C | 97% | 1010.7 hPa | 6.1 mm | - | 0 W/m² | - |
| 1777631198 | 17.78° C | 97% | 1011 hPa | 5.59 mm | - | 0 W/m² | - |
| 1777630896 | 17.78° C | 97% | 1011 hPa | 4.83 mm | - | 0 W/m² | - |
* Rain latest hour (hover to see other rain measurements)
** Current wind speed in m/s (hover to see current wind gust speed)